GFSFLT1_sfc_temp_057.txt.gz
Temp
90 89 90 89 88 87 87 86 84 82 79 79 80 79 79 81 78 78 80 75 77 78 77 81 83 82 80 80 79 78 77 76 76
89 91 90 90 89 89 88 87 84 83 80 79 80 80 80 79 80 78 79 80 75 76 78 81 81 82 80 79 79 78 76 76 76
91 92 91 91 90 89 89 89 87 85 82 80 80 80 81 80 80 80 78 78 75 79 78 79 80 81 81 80 79 80 77 76 76
92 92 92 91 90 91 89 90 88 85 83 81 80 80 80 81 80 80 80 78 79 78 76 79 78 78 79 81 80 78 78 75 76
87 94 93 93 92 91 89 88 89 86 84 82 81 82 81 80 81 81 79 79 79 79 79 76 79 79 80 80 80 79 77 76 80
89 86 92 93 92 91 90 89 89 87 87 84 83 83 82 81 80 80 80 80 81 80 80 81 80 80 80 81 80 79 79 79 78
83 84 91 93 92 91 91 90 89 89 88 89 85 84 82 81 81 81 81 82 80 81 81 81 81 82 82 80 81 81 80 80 79
84 84 86 90 93 92 92 91 89 89 89 89 90 85 84 82 82 82 82 82 81 81 81 81 82 82 81 81 81 83 80 81 80
80 81 84 85 86 91 92 92 89 90 90 90 90 88 84 85 83 82 82 82 82 81 81 82 82 80 82 81 83 76 73 79 81
81 82 82 82 84 84 90 92 92 89 89 91 89 87 87 85 84 82 82 82 82 81 81 82 81 82 81 81 82 72 70 72 83
80 81 82 82 82 82 84 85 92 91 91 87 87 87 85 86 84 82 82 82 81 82 82 82 82 81 82 82 82 71 68 70 82
77 77 77 78 80 80 79 83 81 86 90 87 83 83 84 84 84 83 82 81 82 82 83 82 82 82 81 81 82 67 66 68 80
77 78 79 78 80 80 80 79 82 80 83 86 87 87 82 83 84 83 82 82 82 83 83 83 83 83 83 78 82 68 64 66 81
76 75 76 78 79 77 77 79 79 78 81 80 80 80 80 81 82 83 84 84 84 83 82 82 82 82 83 83 80 80 62 61 80
73 72 73 75 75 76 80 77 78 76 77 80 81 81 80 79 78 82 82 82 82 82 81 80 80 80 81 82 83 68 64 59 62
69 70 71 73 72 75 79 79 75 75 77 77 81 78 79 80 78 81 83 80 80 80 80 80 79 79 79 80 82 82 62 58 59
65 67 69 70 71 72 74 78 80 78 76 78 78 78 77 76 78 76 79 78 82 81 81 80 80 79 79 80 77 81 82 69 63
63 64 67 67 67 70 71 76 78 80 78 78 76 76 77 77 77 77 75 63 60 77 72 73 81 81 79 78 78 79 70 72 69
61 63 66 65 67 70 72 75 76 76 77 77 76 75 76 76 76 77 72 63 60 48 47 46 45 55 72 62 56 49 49 51 54
61 61 64 64 65 69 71 73 75 75 75 75 75 75 75 76 74 76 71 69 66 63 55 47 45 44 46 54 50 46 47 48 48

GFSFLT1_sfc_temp_060.txt.gz
Temp
81 83 82 84 85 86 84 82 81 81 79 79 78 78 77 78 77 77 77 75 72 74 75 77 78 78 78 77 77 75 74 73 74
81 83 83 84 87 86 86 82 81 80 79 79 79 79 79 77 76 78 78 73 74 75 73 77 77 79 78 78 77 76 74 73 73
82 83 84 86 88 86 87 85 83 81 80 80 80 80 80 80 79 77 76 77 73 73 74 76 77 77 79 79 77 77 74 74 74
83 83 84 87 88 88 87 87 84 82 80 80 79 80 80 79 79 79 78 75 77 77 75 74 75 77 78 78 78 76 75 74 75
86 86 87 89 89 88 87 86 85 82 81 80 80 80 80 79 79 78 77 77 76 77 75 75 78 75 76 77 78 76 77 75 77
87 87 88 89 89 87 86 86 86 84 83 81 81 80 79 79 78 78 77 77 78 75 77 77 76 77 76 76 77 77 77 77 77
86 88 89 89 88 87 87 87 86 84 84 83 82 80 79 77 78 78 78 78 78 78 77 77 77 76 78 78 78 79 79 78 77
81 85 88 88 87 87 87 86 86 85 85 84 83 80 79 78 79 79 79 78 77 78 78 79 79 78 77 78 79 80 79 79 78
77 84 88 88 88 88 87 87 86 86 85 84 84 81 80 80 79 79 79 79 79 77 77 78 78 78 79 76 80 74 72 78 79
76 77 82 88 88 88 89 89 88 86 85 86 83 81 81 81 80 79 78 79 79 78 77 78 78 78 79 79 79 70 69 71 81
74 77 78 77 76 78 88 91 89 89 87 85 84 82 81 81 80 79 79 79 79 79 79 78 78 78 79 78 80 69 67 69 78
70 71 72 73 74 75 78 79 82 85 84 85 84 83 82 81 81 80 79 78 79 80 80 79 79 80 79 79 80 66 65 66 76
70 71 71 73 75 77 76 74 77 80 84 84 84 84 83 84 82 81 80 80 80 81 81 81 81 80 81 75 79 67 63 66 79
69 70 70 71 73 74 74 74 75 74 77 77 79 81 80 81 84 83 82 82 82 81 81 81 80 80 81 80 78 78 61 61 78
66 66 69 70 69 71 73 74 75 72 73 76 77 78 78 76 77 82 83 81 81 81 81 79 79 78 79 80 81 66 61 59 62
63 65 66 68 66 67 70 72 72 74 75 73 76 76 75 75 76 79 80 79 79 79 79 79 78 77 77 79 80 79 61 58 59
61 63 64 66 67 67 66 68 72 73 75 74 73 74 74 73 73 73 73 79 79 79 78 78 78 77 77 78 78 78 74 68 64
59 60 61 63 63 65 66 67 69 72 74 75 74 72 72 73 73 71 73 69 68 76 78 75 79 79 78 77 76 75 70 70 70
59 59 59 59 61 63 65 66 68 70 73 73 72 72 72 71 73 72 69 63 58 48 47 46 47 52 68 69 57 55 54 51 53
58 58 58 58 60 62 63 64 65 68 70 71 70 70 71 72 69 73 68 66 65 63 55 46 44 44 51 54 54 46 46 46 46

GFSFLT1_sfc_temp_063.txt.gz
Temp
80 79 80 80 82 82 82 82 82 79 76 76 76 75 76 76 75 75 75 73 71 71 72 75 74 76 75 75 74 74 73 72 72
79 79 81 81 84 84 84 82 82 79 77 77 77 76 77 76 76 75 75 72 73 73 72 75 75 75 76 75 75 74 73 73 72
78 81 81 82 84 84 83 83 82 81 80 78 78 78 78 77 77 76 77 73 72 71 72 73 75 73 75 74 75 75 74 73 72
79 80 81 82 83 86 85 84 82 81 80 79 79 78 78 78 77 76 77 75 74 74 73 73 74 73 73 74 75 75 74 73 74
82 83 83 85 84 86 85 84 82 81 80 79 80 79 79 78 77 76 75 75 75 75 74 73 73 72 73 74 76 75 75 75 76
79 81 82 84 84 85 85 85 83 81 80 80 81 80 79 78 77 76 75 75 76 74 75 75 72 74 73 73 75 75 75 76 76
77 81 83 82 84 86 86 85 84 82 80 81 81 80 78 77 76 76 77 76 76 75 75 75 74 74 76 75 75 76 76 76 76
75 83 83 82 84 86 86 84 84 83 82 81 81 79 77 77 77 77 77 76 76 76 75 77 77 76 75 76 77 78 76 76 76
74 82 83 84 85 87 86 85 84 84 82 81 80 79 77 78 77 77 76 76 76 75 75 75 76 75 76 74 78 73 71 76 77
72 82 84 84 86 87 87 86 86 84 82 82 80 79 78 78 77 75 75 76 76 74 74 75 74 75 76 76 77 69 69 70 79
64 68 74 82 87 88 88 88 86 86 83 81 79 78 78 78 77 76 76 76 76 76 75 74 74 75 75 76 77 67 66 68 76
65 66 68 70 72 76 79 84 85 82 80 81 78 78 78 78 78 77 76 75 76 77 77 76 75 76 76 75 77 65 64 66 75
65 68 68 70 73 73 74 72 84 81 80 80 78 78 79 79 79 78 77 77 77 78 78 78 78 77 77 73 77 66 62 64 76
64 66 67 69 70 69 69 70 77 79 80 80 82 79 78 78 79 79 79 78 79 78 78 78 77 77 78 78 75 76 61 60 76
63 63 65 67 66 67 69 71 74 71 71 72 76 77 78 79 79 79 80 78 78 78 77 76 76 76 77 78 79 65 61 59 61
59 60 62 64 64 65 67 69 71 72 71 71 72 72 73 73 77 80 82 78 78 77 77 77 76 76 76 77 77 78 60 58 58
57 58 60 61 63 63 64 66 68 70 72 72 72 71 70 71 71 71 73 77 79 77 77 76 77 76 75 76 76 75 73 67 65
56 57 57 58 59 59 61 62 65 67 71 71 70 70 71 70 71 70 70 71 69 75 77 74 77 77 76 75 73 74 69 70 72
55 56 56 56 57 58 60 61 62 64 67 69 68 68 68 68 69 70 70 67 62 48 48 48 47 50 63 73 63 59 55 54 54
55 56 56 56 56 57 60 61 62 62 64 65 66 66 66 68 66 69 69 66 66 65 55 46 45 44 46 47 58 51 50 49 48

GFSFLT1_sfc_temp_069.txt.gz
Temp
85 83 83 83 83 83 83 84 83 83 80 79 80 80 80 80 81 84 84 83 86 86 87 87 86 85 86 85 85 85 84 85 86
84 84 84 84 85 85 85 84 83 82 81 79 80 81 80 80 81 81 83 83 83 86 85 87 85 86 85 85 85 85 85 86 84
85 87 85 86 86 86 86 86 85 84 83 80 81 82 82 82 82 81 82 82 81 83 84 83 85 84 85 85 85 85 84 85 85
87 87 86 87 86 87 87 87 86 85 83 82 82 82 82 82 82 82 82 83 82 83 83 83 83 84 84 85 85 85 83 83 85
88 88 89 87 88 87 86 86 87 86 86 84 84 83 82 82 82 82 82 82 83 83 82 83 83 83 83 84 85 85 83 83 86
85 85 87 87 88 87 86 86 85 87 87 87 87 84 83 82 82 82 82 82 83 83 82 83 83 83 82 84 85 84 84 84 85
82 81 84 86 86 87 87 86 85 85 87 89 88 86 85 82 81 82 83 82 82 82 82 82 82 82 83 84 85 85 85 85 84
76 78 81 83 85 86 85 85 85 85 86 86 87 84 83 82 82 82 82 82 82 82 82 83 83 82 83 84 85 88 84 85 85
71 74 76 79 84 85 85 85 84 84 85 85 85 82 82 82 82 81 81 81 81 81 81 81 82 82 82 82 86 76 72 79 85
68 70 72 75 78 84 85 87 83 83 84 85 82 81 82 82 81 80 80 81 81 80 80 82 81 81 82 82 83 70 69 70 84
67 68 70 72 76 81 88 90 89 86 86 83 81 81 81 81 81 80 81 80 80 80 81 80 80 81 82 82 83 68 66 68 81
65 65 69 72 76 81 88 90 89 85 84 83 82 81 81 81 81 80 80 80 80 81 80 80 80 81 81 81 82 65 64 67 82
65 67 68 70 79 87 91 89 91 84 82 82 81 82 82 82 82 81 80 80 80 81 82 82 84 82 82 76 81 67 62 67 83
64 65 69 73 76 83 87 88 86 82 82 81 83 85 84 82 82 81 81 81 81 81 81 83 81 82 83 82 80 80 61 59 80
62 63 67 70 70 72 81 85 83 81 80 83 83 83 83 82 81 83 84 81 81 81 80 79 80 80 82 85 83 67 63 58 61
62 62 64 68 69 69 71 73 81 80 79 81 82 81 81 81 82 82 84 81 80 81 80 83 81 83 83 85 87 86 61 58 58
59 61 63 65 67 67 66 71 73 74 76 80 81 80 80 81 81 80 82 84 84 84 84 83 84 84 84 86 87 87 87 79 72
59 62 62 65 65 65 65 67 71 73 74 78 80 81 81 80 81 79 82 84 85 85 86 82 86 86 87 86 86 87 76 78 85
61 62 64 64 67 66 66 67 69 70 73 74 76 77 80 78 82 83 84 83 80 53 54 51 50 52 67 87 67 58 55 53 54
58 64 65 64 65 67 66 68 69 70 71 73 72 71 71 69 76 82 82 78 76 78 67 49 49 48 48 49 56 51 49 49 48

GFSFLT1_sfc_temp_072.txt.gz
Temp
95 93 93 93 92 92 91 90 90 89 87 84 85 85 85 85 86 89 90 89 93 93 94 95 93 91 91 91 91 91 90 89 91
94 95 95 94 94 93 92 90 90 89 88 84 85 86 85 85 86 86 90 89 90 92 92 95 92 91 90 91 91 90 90 91 89
95 97 97 96 95 94 94 93 92 90 89 85 86 88 87 88 87 87 88 89 87 89 91 90 92 90 90 90 90 90 88 91 90
97 98 99 98 97 96 95 95 94 92 90 87 87 88 88 88 88 89 88 89 88 88 88 89 88 89 89 90 90 90 88 88 90
98 99 100 99 99 96 95 94 94 93 92 90 89 90 88 87 88 89 89 88 89 89 87 88 88 89 89 89 90 90 88 88 91
92 93 97 99 99 96 94 94 93 93 93 93 93 91 90 89 88 88 88 88 88 89 88 88 89 88 88 88 89 90 90 89 89
88 89 91 95 97 97 95 93 92 92 94 96 95 93 91 88 87 88 89 89 88 88 88 87 87 88 88 89 90 90 91 91 89
82 85 89 90 94 95 94 93 92 91 93 94 95 93 91 89 88 88 88 88 88 88 88 88 88 88 88 89 91 94 90 90 90
80 82 84 86 89 92 94 93 91 91 91 93 94 91 91 90 88 87 87 87 88 87 87 87 87 87 88 88 93 79 74 83 90
77 79 81 83 84 87 91 95 93 91 91 93 91 90 89 89 87 86 86 87 87 86 86 87 86 86 87 87 89 72 70 72 90
74 76 77 79 83 86 90 95 99 94 94 90 90 88 88 88 87 86 86 86 86 85 87 86 86 86 87 87 89 70 67 69 86
73 73 75 78 82 85 87 90 95 95 92 91 89 88 87 88 88 86 86 85 85 86 86 86 86 87 86 86 87 67 66 70 87
71 72 74 77 81 85 90 90 95 95 90 90 87 87 88 88 88 87 86 86 85 86 86 86 90 88 88 81 87 69 62 69 89
67 68 68 74 80 82 88 95 93 93 90 89 89 90 89 88 88 86 87 86 86 86 86 88 86 88 88 87 85 84 61 59 84
66 65 66 71 73 75 84 93 92 90 87 89 88 90 89 88 87 88 89 86 85 85 85 84 85 84 87 91 88 69 63 58 62
62 65 63 67 71 74 77 84 91 86 86 88 88 88 87 86 86 87 90 85 84 86 84 88 86 88 89 91 95 92 62 57 58
61 62 62 64 66 72 71 74 78 79 84 87 86 85 85 86 85 84 87 90 89 89 90 88 90 91 91 93 95 95 96 85 74
59 61 62 63 63 64 67 71 73 77 79 85 85 85 86 86 88 85 87 89 91 91 92 90 93 94 95 94 93 95 82 84 93
60 60 63 61 62 62 64 68 70 73 76 79 83 84 86 88 91 89 90 90 89 57 57 54 54 54 73 95 71 59 56 57 56
59 63 64 63 63 63 64 64 65 68 72 75 78 79 81 85 85 89 88 89 90 89 72 52 52 53 52 53 56 53 50 47 48

GFSFLT1_sfc_temp_075.txt.gz
Temp
98 97 98 97 96 95 94 94 94 93 88 85 86 86 85 85 87 91 91 91 94 95 97 97 93 91 92 91 91 91 90 90 91
95 98 98 98 98 98 96 95 94 92 90 86 86 87 85 85 86 87 90 90 90 94 94 98 96 94 91 91 91 91 90 91 88
98 100 100 100 100 98 98 97 96 94 92 87 87 88 88 88 87 87 89 91 90 91 93 93 94 92 92 91 91 91 90 91 91
98 100 101 101 101 101 99 99 97 95 93 91 88 89 88 88 89 89 89 90 91 90 91 92 91 91 90 90 90 90 89 89 92
100 102 101 102 104 102 100 98 98 96 95 93 91 91 89 88 89 89 89 89 91 91 89 90 90 90 90 90 91 90 89 88 92
98 99 100 101 104 101 100 98 97 97 96 96 95 91 91 90 89 89 89 89 90 91 90 89 90 89 89 89 90 90 90 90 90
92 92 94 98 102 101 100 98 96 96 97 98 97 95 93 89 88 89 90 90 89 90 90 89 89 89 89 90 90 91 91 91 90
87 88 92 95 99 101 100 98 96 96 97 97 97 94 93 91 89 89 89 89 89 90 90 90 89 89 90 90 91 94 90 91 91
84 87 89 91 93 96 99 98 96 96 95 97 96 93 92 91 89 88 88 88 89 89 89 89 89 89 89 89 94 81 75 85 91
81 83 85 85 87 91 93 98 98 96 95 96 94 93 92 91 89 87 87 88 88 87 87 89 88 88 89 89 90 73 71 74 91
78 80 80 81 85 88 92 96 100 100 99 93 93 91 92 91 90 88 88 88 87 87 88 87 87 88 88 89 90 71 68 71 88
78 77 79 80 82 85 88 90 93 96 97 96 93 91 91 91 91 88 88 87 87 88 88 88 88 89 87 87 88 68 66 71 89
76 77 77 78 80 85 88 90 94 92 96 94 91 91 92 92 91 89 88 87 87 88 89 89 92 90 89 82 88 69 64 70 90
76 74 74 76 78 79 83 86 91 92 93 94 95 94 93 92 91 89 89 88 88 88 88 89 88 89 90 89 87 86 62 61 86
73 71 71 74 74 73 77 84 87 90 88 93 94 93 92 90 89 91 92 87 88 87 87 85 86 86 89 92 89 71 62 59 63
71 69 69 70 70 72 72 76 81 90 92 92 92 91 89 89 89 90 91 87 86 87 87 88 86 89 89 92 96 92 64 58 59
68 65 64 66 68 69 67 71 72 76 76 90 90 88 88 89 88 87 89 91 90 89 90 89 91 90 92 93 95 97 97 83 73
64 62 63 66 66 65 65 67 67 69 71 71 83 85 88 88 89 86 88 91 92 92 92 89 93 95 96 95 95 96 86 86 90
62 60 62 65 65 65 65 67 64 65 68 68 76 80 83 89 91 90 90 91 87 57 63 54 54 55 72 96 63 56 56 55 53
58 61 60 63 63 64 64 64 63 64 65 66 68 73 76 89 86 93 91 92 91 88 71 55 55 55 54 53 54 53 53 50 50